{"data":{"norad_id":69325,"epoch":"2026-09-20T00:46:12.538848Z","epoch_age_seconds":70546,"freshness":"FRESH","line1":"1 69325U 26121A   26263.03208957  .00000013  00000+0  14552-5 0  9995","line2":"2 69325  89.0100 291.0724 0002414 119.9547 240.1844 13.51022063 14974","mean_motion":13.51022063,"eccentricity":0.0002414,"inclination_deg":89.01,"raan_deg":291.0724,"arg_perigee_deg":119.9547,"mean_anomaly_deg":240.1844,"bstar":1.4552e-6,"rev_number":1497,"period_min":106.5859721641,"perigee_km":1066.7028938107,"apogee_km":1070.2981304016,"semimajor_km":7446.6375121061,"source":"CELESTRAK","updated_at":"2026-09-20T09:00:24.818616Z"}}